owner,sensor,date,latitude,longitude,vertical_datum,wind_speed,wind_to_direction,wind_speed_of_gust,qcFlag 
WAVCIS,ioos:station:WAVCIS:CSI03:3,2010-08-01T00:00:00Z,29.4412,-92.0613,10.0,7.15,269.0,,'11111222,11111222,99999999' 
WAVCIS,ioos:station:WAVCIS:CSI03:3,2010-08-01T01:00:00Z,29.4412,-92.0613,10.0,6.964,269.0,,'11111222,11111222,99999999' 
WAVCIS,ioos:station:WAVCIS:CSI03:3,2010-08-01T02:00:00Z,29.4412,-92.0613,10.0,6.891,270.0,,'11111222,11111222,99999999' 
WAVCIS,ioos:station:WAVCIS:CSI03:3,2010-08-01T03:00:00Z,29.4412,-92.0613,10.0,6.522,270.0,,'11111222,11111222,99999999' 
WAVCIS,ioos:station:WAVCIS:CSI03:3,2010-08-01T04:00:00Z,29.4412,-92.0613,10.0,6.077,270.0,,'11111222,11111222,99999999' 
WAVCIS,ioos:station:WAVCIS:CSI03:3,2010-08-01T05:00:00Z,29.4412,-92.0613,10.0,5.246,270.0,,'11111222,11111222,99999999' 
WAVCIS,ioos:station:WAVCIS:CSI03:3,2010-08-01T06:00:00Z,29.4412,-92.0613,10.0,5.24,270.0,,'11111222,11111222,99999999' 
WAVCIS,ioos:station:WAVCIS:CSI03:3,2010-08-01T07:00:00Z,29.4412,-92.0613,10.0,5.861,270.0,,'11111222,11111222,99999999' 
WAVCIS,ioos:station:WAVCIS:CSI03:3,2010-08-01T08:00:00Z,29.4412,-92.0613,10.0,3.979,270.0,,'11111222,11111222,99999999' 
WAVCIS,ioos:station:WAVCIS:CSI03:3,2010-08-01T09:00:00Z,29.4412,-92.0613,10.0,2.273,269.0,,'11111222,11111222,99999999' 
WAVCIS,ioos:station:WAVCIS:CSI03:3,2010-08-01T10:00:00Z,29.4412,-92.0613,10.0,2.919,269.0,,'11111222,11111222,99999999' 
WAVCIS,ioos:station:WAVCIS:CSI03:3,2010-08-01T11:00:00Z,29.4412,-92.0613,10.0,5.487,320.0,,'11111222,11111222,99999999' 
WAVCIS,ioos:station:WAVCIS:CSI03:3,2010-08-01T12:00:00Z,29.4412,-92.0613,10.0,5.762,319.0,,'11111222,11111222,99999999' 
WAVCIS,ioos:station:WAVCIS:CSI03:3,2010-08-01T13:00:00Z,29.4412,-92.0613,10.0,5.989,321.0,,'11111222,11111222,99999999' 
WAVCIS,ioos:station:WAVCIS:CSI03:3,2010-08-01T14:00:00Z,29.4412,-92.0613,10.0,5.673,336.0,,'11111222,11111222,99999999' 
WAVCIS,ioos:station:WAVCIS:CSI03:3,2010-08-01T15:00:00Z,29.4412,-92.0613,10.0,4.106,349.0,,'11111222,11111222,99999999' 
WAVCIS,ioos:station:WAVCIS:CSI03:3,2010-08-01T16:00:00Z,29.4412,-92.0613,10.0,2.181,353.0,,'11111222,11111222,99999999' 
WAVCIS,ioos:station:WAVCIS:CSI03:3,2010-08-01T17:00:00Z,29.4412,-92.0613,10.0,1.527,352.0,,'11111222,11111222,99999999' 
WAVCIS,ioos:station:WAVCIS:CSI03:3,2010-08-01T18:00:00Z,29.4412,-92.0613,10.0,0.685,296.0,,'11111222,11111222,99999999' 
WAVCIS,ioos:station:WAVCIS:CSI03:3,2010-08-01T19:00:00Z,29.4412,-92.0613,10.0,3.138,248.0,,'11111222,11111222,99999999' 
WAVCIS,ioos:station:WAVCIS:CSI03:3,2010-08-01T20:00:00Z,29.4412,-92.0613,10.0,4.047,243.0,,'11111222,11111222,99999999' 
WAVCIS,ioos:station:WAVCIS:CSI03:3,2010-08-01T21:00:00Z,29.4412,-92.0613,10.0,3.959,247.0,,'11111222,11111222,99999999' 
WAVCIS,ioos:station:WAVCIS:CSI03:3,2010-08-01T22:00:00Z,29.4412,-92.0613,10.0,3.602,249.0,,'11111222,11111222,99999999' 
WAVCIS,ioos:station:WAVCIS:CSI03:3,2010-08-01T23:00:00Z,29.4412,-92.0613,10.0,5.099,264.0,,'11111222,11111222,99999999' 
WAVCIS,ioos:station:WAVCIS:CSI03:3,2010-08-02T00:00:00Z,29.4412,-92.0613,10.0,6.678,269.0,,'11111222,11111222,99999999' 
WAVCIS,ioos:station:WAVCIS:CSI03:3,2010-08-02T01:00:00Z,29.4412,-92.0613,10.0,5.527,270.0,,'11111222,11111222,99999999' 
WAVCIS,ioos:station:WAVCIS:CSI03:3,2010-08-02T02:00:00Z,29.4412,-92.0613,10.0,5.141,269.0,,'11111222,11111222,99999999' 
WAVCIS,ioos:station:WAVCIS:CSI03:3,2010-08-02T03:00:00Z,29.4412,-92.0613,10.0,4.522,269.0,,'11111222,11111222,99999999' 
WAVCIS,ioos:station:WAVCIS:CSI03:3,2010-08-02T04:00:00Z,29.4412,-92.0613,10.0,3.621,270.0,,'11111222,11111222,99999999' 
WAVCIS,ioos:station:WAVCIS:CSI03:3,2010-08-02T05:00:00Z,29.4412,-92.0613,10.0,4.208,269.0,,'11111222,11111222,99999999' 
WAVCIS,ioos:station:WAVCIS:CSI03:3,2010-08-02T06:00:00Z,29.4412,-92.0613,10.0,3.33,269.0,,'11111222,11111222,99999999' 
WAVCIS,ioos:station:WAVCIS:CSI03:3,2010-08-02T07:00:00Z,29.4412,-92.0613,10.0,4.499,269.0,,'11111222,11111222,99999999' 
WAVCIS,ioos:station:WAVCIS:CSI03:3,2010-08-02T08:00:00Z,29.4412,-92.0613,10.0,5.099,269.0,,'11111222,11111222,99999999' 
WAVCIS,ioos:station:WAVCIS:CSI03:3,2010-08-02T09:00:00Z,29.4412,-92.0613,10.0,4.991,270.0,,'11111222,11111222,99999999' 
WAVCIS,ioos:station:WAVCIS:CSI03:3,2010-08-02T10:00:00Z,29.4412,-92.0613,10.0,3.911,270.0,,'11111222,11111222,99999999' 
WAVCIS,ioos:station:WAVCIS:CSI03:3,2010-08-02T11:00:00Z,29.4412,-92.0613,10.0,1.666,269.0,,'11111222,11111222,99999999' 
WAVCIS,ioos:station:WAVCIS:CSI03:3,2010-08-02T12:00:00Z,29.4412,-92.0613,10.0,1.726,270.0,,'11111222,11111222,99999999' 
WAVCIS,ioos:station:WAVCIS:CSI03:3,2010-08-02T13:00:00Z,29.4412,-92.0613,10.0,2.071,270.0,,'11111222,11111222,99999999' 
WAVCIS,ioos:station:WAVCIS:CSI03:3,2010-08-02T14:00:00Z,29.4412,-92.0613,10.0,2.078,270.0,,'11111222,11111222,99999999' 
WAVCIS,ioos:station:WAVCIS:CSI03:3,2010-08-02T15:00:00Z,29.4412,-92.0613,10.0,0.286,270.0,,'11111222,11111222,99999999' 
WAVCIS,ioos:station:WAVCIS:CSI03:3,2010-08-02T16:00:00Z,29.4412,-92.0613,10.0,0.135,270.0,,'11111222,11111222,99999999' 
WAVCIS,ioos:station:WAVCIS:CSI03:3,2010-08-02T17:00:00Z,29.4412,-92.0613,10.0,0.098,270.0,,'11111222,11111222,99999999' 
WAVCIS,ioos:station:WAVCIS:CSI03:3,2010-08-02T18:00:00Z,29.4412,-92.0613,10.0,0.084,262.0,,'11111222,11111222,99999999' 
WAVCIS,ioos:station:WAVCIS:CSI03:3,2010-08-02T19:00:00Z,29.4412,-92.0613,10.0,2.529,263.0,,'11111222,11111222,99999999' 
WAVCIS,ioos:station:WAVCIS:CSI03:3,2010-08-02T20:00:00Z,29.4412,-92.0613,10.0,1.887,256.0,,'11111222,11111222,99999999' 
WAVCIS,ioos:station:WAVCIS:CSI03:3,2010-08-02T21:00:00Z,29.4412,-92.0613,10.0,0.388,218.0,,'11111222,11111222,99999999' 
WAVCIS,ioos:station:WAVCIS:CSI03:3,2010-08-02T22:00:00Z,29.4412,-92.0613,10.0,1.276,184.0,,'11111222,11111222,99999999' 
WAVCIS,ioos:station:WAVCIS:CSI03:3,2010-08-02T23:00:00Z,29.4412,-92.0613,10.0,2.252,245.0,,'11111222,11111222,99999999' 
WAVCIS,ioos:station:WAVCIS:CSI03:3,2010-08-03T00:00:00Z,29.4412,-92.0613,10.0,1.11,233.0,,'11111222,11111222,99999999' 
WAVCIS,ioos:station:WAVCIS:CSI03:3,2010-08-03T01:00:00Z,29.4412,-92.0613,10.0,2.081,236.0,,'11111222,11111222,99999999' 
WAVCIS,ioos:station:WAVCIS:CSI03:3,2010-08-03T02:00:00Z,29.4412,-92.0613,10.0,0.876,215.0,,'11111222,11111222,99999999' 
WAVCIS,ioos:station:WAVCIS:CSI03:3,2010-08-03T03:00:00Z,29.4412,-92.0613,10.0,0.708,215.0,,'11111222,11111222,99999999' 
WAVCIS,ioos:station:WAVCIS:CSI03:3,2010-08-03T04:00:00Z,29.4412,-92.0613,10.0,1.024,253.0,,'11111222,11111222,99999999' 
WAVCIS,ioos:station:WAVCIS:CSI03:3,2010-08-03T05:00:00Z,29.4412,-92.0613,10.0,0.477,203.0,,'11111222,11111222,99999999' 
WAVCIS,ioos:station:WAVCIS:CSI03:3,2010-08-03T06:00:00Z,29.4412,-92.0613,10.0,0.17,277.0,,'11111222,11111222,99999999' 
WAVCIS,ioos:station:WAVCIS:CSI03:3,2010-08-03T07:00:00Z,29.4412,-92.0613,10.0,3.507,251.0,,'11111222,11111222,99999999' 
WAVCIS,ioos:station:WAVCIS:CSI03:3,2010-08-03T08:00:00Z,29.4412,-92.0613,10.0,2.884,266.0,,'11111222,11111222,99999999' 
WAVCIS,ioos:station:WAVCIS:CSI03:3,2010-08-03T09:00:00Z,29.4412,-92.0613,10.0,3.393,269.0,,'11111222,11111222,99999999' 
WAVCIS,ioos:station:WAVCIS:CSI03:3,2010-08-03T10:00:00Z,29.4412,-92.0613,10.0,3.151,269.0,,'11111222,11111222,99999999' 
WAVCIS,ioos:station:WAVCIS:CSI03:3,2010-08-03T11:00:00Z,29.4412,-92.0613,10.0,0.605,269.0,,'11111222,11111222,99999999' 
WAVCIS,ioos:station:WAVCIS:CSI03:3,2010-08-03T12:00:00Z,29.4412,-92.0613,10.0,0.775,270.0,,'11111222,11111222,99999999' 
WAVCIS,ioos:station:WAVCIS:CSI03:3,2010-08-03T13:00:00Z,29.4412,-92.0613,10.0,0.221,270.0,,'11111222,11111222,99999999' 
WAVCIS,ioos:station:WAVCIS:CSI03:3,2010-08-03T14:00:00Z,29.4412,-92.0613,10.0,1.404,271.0,,'11111222,11111222,99999999' 
WAVCIS,ioos:station:WAVCIS:CSI03:3,2010-08-03T15:00:00Z,29.4412,-92.0613,10.0,1.199,270.0,,'11111222,11111222,99999999' 
WAVCIS,ioos:station:WAVCIS:CSI03:3,2010-08-03T16:00:00Z,29.4412,-92.0613,10.0,2.583,270.0,,'11111222,11111222,99999999' 
WAVCIS,ioos:station:WAVCIS:CSI03:3,2010-08-03T17:00:00Z,29.4412,-92.0613,10.0,1.086,52.0,,'11111222,11111222,99999999' 
WAVCIS,ioos:station:WAVCIS:CSI03:3,2010-08-03T18:00:00Z,29.4412,-92.0613,10.0,2.228,118.0,,'11111222,11111222,99999999' 
WAVCIS,ioos:station:WAVCIS:CSI03:3,2010-08-03T19:00:00Z,29.4412,-92.0613,10.0,2.666,180.0,,'11111222,11111222,99999999' 
WAVCIS,ioos:station:WAVCIS:CSI03:3,2010-08-03T20:00:00Z,29.4412,-92.0613,10.0,3.311,169.0,,'11111222,11111222,99999999' 
WAVCIS,ioos:station:WAVCIS:CSI03:3,2010-08-03T21:00:00Z,29.4412,-92.0613,10.0,2.481,182.0,,'11111222,11111222,99999999' 
WAVCIS,ioos:station:WAVCIS:CSI03:3,2010-08-03T22:00:00Z,29.4412,-92.0613,10.0,2.484,187.0,,'11111222,11111222,99999999' 
WAVCIS,ioos:station:WAVCIS:CSI03:3,2010-08-03T23:00:00Z,29.4412,-92.0613,10.0,1.714,174.0,,'11111222,11111222,99999999' 
WAVCIS,ioos:station:WAVCIS:CSI03:3,2010-08-04T00:00:00Z,29.4412,-92.0613,10.0,1.769,177.0,,'11111222,11111222,99999999' 
WAVCIS,ioos:station:WAVCIS:CSI03:3,2010-08-04T01:00:00Z,29.4412,-92.0613,10.0,1.975,187.0,,'11111222,11111222,99999999' 
WAVCIS,ioos:station:WAVCIS:CSI03:3,2010-08-04T02:00:00Z,29.4412,-92.0613,10.0,0.885,200.0,,'11111222,11111222,99999999' 
WAVCIS,ioos:station:WAVCIS:CSI03:3,2010-08-04T03:00:00Z,29.4412,-92.0613,10.0,1.167,187.0,,'11111222,11111222,99999999' 
WAVCIS,ioos:station:WAVCIS:CSI03:3,2010-08-04T04:00:00Z,29.4412,-92.0613,10.0,1.699,181.0,,'11111222,11111222,99999999' 
WAVCIS,ioos:station:WAVCIS:CSI03:3,2010-08-04T05:00:00Z,29.4412,-92.0613,10.0,1.901,228.0,,'11111222,11111222,99999999' 
WAVCIS,ioos:station:WAVCIS:CSI03:3,2010-08-04T06:00:00Z,29.4412,-92.0613,10.0,4.188,243.0,,'11111222,11111222,99999999' 
WAVCIS,ioos:station:WAVCIS:CSI03:3,2010-08-04T07:00:00Z,29.4412,-92.0613,10.0,3.546,263.0,,'11111222,11111222,99999999' 
WAVCIS,ioos:station:WAVCIS:CSI03:3,2010-08-04T08:00:00Z,29.4412,-92.0613,10.0,2.738,269.0,,'11111222,11111222,99999999' 
WAVCIS,ioos:station:WAVCIS:CSI03:3,2010-08-04T09:00:00Z,29.4412,-92.0613,10.0,3.036,268.0,,'11111222,11111222,99999999' 
WAVCIS,ioos:station:WAVCIS:CSI03:3,2010-08-04T10:00:00Z,29.4412,-92.0613,10.0,3.141,269.0,,'11111222,11111222,99999999' 
WAVCIS,ioos:station:WAVCIS:CSI03:3,2010-08-04T11:00:00Z,29.4412,-92.0613,10.0,2.243,263.0,,'11111222,11111222,99999999' 
WAVCIS,ioos:station:WAVCIS:CSI03:3,2010-08-04T12:00:00Z,29.4412,-92.0613,10.0,2.931,265.0,,'11111222,11111222,99999999' 
WAVCIS,ioos:station:WAVCIS:CSI03:3,2010-08-04T13:00:00Z,29.4412,-92.0613,10.0,2.728,267.0,,'11111222,11111222,99999999' 
WAVCIS,ioos:station:WAVCIS:CSI03:3,2010-08-04T14:00:00Z,29.4412,-92.0613,10.0,2.296,266.0,,'11111222,11111222,99999999' 
WAVCIS,ioos:station:WAVCIS:CSI03:3,2010-08-04T15:00:00Z,29.4412,-92.0613,10.0,1.847,269.0,,'11111222,11111222,99999999' 
WAVCIS,ioos:station:WAVCIS:CSI03:3,2010-08-04T16:00:00Z,29.4412,-92.0613,10.0,0.292,269.0,,'11111222,11111222,99999999' 
WAVCIS,ioos:station:WAVCIS:CSI03:3,2010-08-04T17:00:00Z,29.4412,-92.0613,10.0,1.804,289.0,,'11111222,11111222,99999999' 
WAVCIS,ioos:station:WAVCIS:CSI03:3,2010-08-04T18:00:00Z,29.4412,-92.0613,10.0,0.188,277.0,,'11111222,11111222,99999999' 
WAVCIS,ioos:station:WAVCIS:CSI03:3,2010-08-04T19:00:00Z,29.4412,-92.0613,10.0,2.747,278.0,,'11111222,11111222,99999999' 
WAVCIS,ioos:station:WAVCIS:CSI03:3,2010-08-04T20:00:00Z,29.4412,-92.0613,10.0,2.98,266.0,,'11111222,11111222,99999999' 
WAVCIS,ioos:station:WAVCIS:CSI03:3,2010-08-04T21:00:00Z,29.4412,-92.0613,10.0,1.36,235.0,,'11111222,11111222,99999999' 
WAVCIS,ioos:station:WAVCIS:CSI03:3,2010-08-04T22:00:00Z,29.4412,-92.0613,10.0,1.932,233.0,,'11111222,11111222,99999999' 
WAVCIS,ioos:station:WAVCIS:CSI03:3,2010-08-04T23:00:00Z,29.4412,-92.0613,10.0,4.255,245.0,,'11111222,11111222,99999999' 
WAVCIS,ioos:station:WAVCIS:CSI03:3,2010-08-05T00:00:00Z,29.4412,-92.0613,10.0,4.118,260.0,,'11111222,11111222,99999999' 
WAVCIS,ioos:station:WAVCIS:CSI03:3,2010-08-05T01:00:00Z,29.4412,-92.0613,10.0,4.16,262.0,,'11111222,11111222,99999999' 
WAVCIS,ioos:station:WAVCIS:CSI03:3,2010-08-05T02:00:00Z,29.4412,-92.0613,10.0,3.805,249.0,,'11111222,11111222,99999999' 
WAVCIS,ioos:station:WAVCIS:CSI03:3,2010-08-05T03:00:00Z,29.4412,-92.0613,10.0,3.633,251.0,,'11111222,11111222,99999999' 
WAVCIS,ioos:station:WAVCIS:CSI03:3,2010-08-05T04:00:00Z,29.4412,-92.0613,10.0,3.48,246.0,,'11111222,11111222,99999999' 
WAVCIS,ioos:station:WAVCIS:CSI03:3,2010-08-05T05:00:00Z,29.4412,-92.0613,10.0,2.984,243.0,,'11111222,11111222,99999999' 
WAVCIS,ioos:station:WAVCIS:CSI03:3,2010-08-05T06:00:00Z,29.4412,-92.0613,10.0,1.905,274.0,,'11111222,11111222,99999999' 
WAVCIS,ioos:station:WAVCIS:CSI03:3,2010-08-05T07:00:00Z,29.4412,-92.0613,10.0,4.33,45.0,,'11111222,11111222,99999999' 
WAVCIS,ioos:station:WAVCIS:CSI03:3,2010-08-05T08:00:00Z,29.4412,-92.0613,10.0,0.72,27.0,,'11111222,11111222,99999999' 
WAVCIS,ioos:station:WAVCIS:CSI03:3,2010-08-05T09:00:00Z,29.4412,-92.0613,10.0,1.971,288.0,,'11111222,11111222,99999999' 
WAVCIS,ioos:station:WAVCIS:CSI03:3,2010-08-05T10:00:00Z,29.4412,-92.0613,10.0,2.29,307.0,,'11111222,11111222,99999999' 
WAVCIS,ioos:station:WAVCIS:CSI03:3,2010-08-05T11:00:00Z,29.4412,-92.0613,10.0,3.805,338.0,,'11111222,11111222,99999999' 
WAVCIS,ioos:station:WAVCIS:CSI03:3,2010-08-05T12:00:00Z,29.4412,-92.0613,10.0,3.911,322.0,,'11111222,11111222,99999999' 
WAVCIS,ioos:station:WAVCIS:CSI03:3,2010-08-05T13:00:00Z,29.4412,-92.0613,10.0,3.521,324.0,,'11111222,11111222,99999999' 
WAVCIS,ioos:station:WAVCIS:CSI03:3,2010-08-05T14:00:00Z,29.4412,-92.0613,10.0,2.491,2.0,,'11111222,11111222,99999999' 
WAVCIS,ioos:station:WAVCIS:CSI03:3,2010-08-05T15:00:00Z,29.4412,-92.0613,10.0,2.959,188.0,,'11111222,11111222,99999999' 
WAVCIS,ioos:station:WAVCIS:CSI03:3,2010-08-05T16:00:00Z,29.4412,-92.0613,10.0,1.587,205.0,,'11111222,11111222,99999999' 
WAVCIS,ioos:station:WAVCIS:CSI03:3,2010-08-05T17:00:00Z,29.4412,-92.0613,10.0,4.381,253.0,,'11111222,11111222,99999999' 
WAVCIS,ioos:station:WAVCIS:CSI03:3,2010-08-05T18:00:00Z,29.4412,-92.0613,10.0,2.946,271.0,,'11111222,11111222,99999999' 
WAVCIS,ioos:station:WAVCIS:CSI03:3,2010-08-05T19:00:00Z,29.4412,-92.0613,10.0,2.89,45.0,,'11111222,11111222,99999999' 
WAVCIS,ioos:station:WAVCIS:CSI03:3,2010-08-05T20:00:00Z,29.4412,-92.0613,10.0,3.901,6.0,,'11111222,11111222,99999999' 
WAVCIS,ioos:station:WAVCIS:CSI03:3,2010-08-05T21:00:00Z,29.4412,-92.0613,10.0,2.197,17.0,,'11111222,11111222,99999999' 
WAVCIS,ioos:station:WAVCIS:CSI03:3,2010-08-05T22:00:00Z,29.4412,-92.0613,10.0,1.527,36.0,,'11111222,11111222,99999999' 
WAVCIS,ioos:station:WAVCIS:CSI03:3,2010-08-05T23:00:00Z,29.4412,-92.0613,10.0,4.293,339.0,,'11111222,11111222,99999999' 
WAVCIS,ioos:station:WAVCIS:CSI03:3,2010-08-06T00:00:00Z,29.4412,-92.0613,10.0,1.75,354.0,,'11111222,11111222,99999999' 
WAVCIS,ioos:station:WAVCIS:CSI03:3,2010-08-06T01:00:00Z,29.4412,-92.0613,10.0,1.059,70.0,,'11111222,11111222,99999999' 
WAVCIS,ioos:station:WAVCIS:CSI03:3,2010-08-06T02:00:00Z,29.4412,-92.0613,10.0,2.401,154.0,,'11111222,11111222,99999999' 
WAVCIS,ioos:station:WAVCIS:CSI03:3,2010-08-06T03:00:00Z,29.4412,-92.0613,10.0,2.914,166.0,,'11111222,11111222,99999999' 
WAVCIS,ioos:station:WAVCIS:CSI03:3,2010-08-06T04:00:00Z,29.4412,-92.0613,10.0,1.502,177.0,,'11111222,11111222,99999999' 
WAVCIS,ioos:station:WAVCIS:CSI03:3,2010-08-06T05:00:00Z,29.4412,-92.0613,10.0,1.836,175.0,,'11111222,11111222,99999999' 
WAVCIS,ioos:station:WAVCIS:CSI03:3,2010-08-06T06:00:00Z,29.4412,-92.0613,10.0,2.117,166.0,,'11111222,11111222,99999999' 
WAVCIS,ioos:station:WAVCIS:CSI03:3,2010-08-06T07:00:00Z,29.4412,-92.0613,10.0,3.032,186.0,,'11111222,11111222,99999999' 
WAVCIS,ioos:station:WAVCIS:CSI03:3,2010-08-06T08:00:00Z,29.4412,-92.0613,10.0,1.937,191.0,,'11111222,11111222,99999999' 
WAVCIS,ioos:station:WAVCIS:CSI03:3,2010-08-06T09:00:00Z,29.4412,-92.0613,10.0,1.497,188.0,,'11111222,11111222,99999999' 
WAVCIS,ioos:station:WAVCIS:CSI03:3,2010-08-06T10:00:00Z,29.4412,-92.0613,10.0,1.182,209.0,,'11111222,11111222,99999999' 
WAVCIS,ioos:station:WAVCIS:CSI03:3,2010-08-06T11:00:00Z,29.4412,-92.0613,10.0,3.865,277.0,,'11111222,11111222,99999999' 
WAVCIS,ioos:station:WAVCIS:CSI03:3,2010-08-06T12:00:00Z,29.4412,-92.0613,10.0,3.816,246.0,,'11111222,11111222,99999999' 
WAVCIS,ioos:station:WAVCIS:CSI03:3,2010-08-06T13:00:00Z,29.4412,-92.0613,10.0,3.715,262.0,,'11111222,11111222,99999999' 
WAVCIS,ioos:station:WAVCIS:CSI03:3,2010-08-06T14:00:00Z,29.4412,-92.0613,10.0,3.329,269.0,,'11111222,11111222,99999999' 
WAVCIS,ioos:station:WAVCIS:CSI03:3,2010-08-06T15:00:00Z,29.4412,-92.0613,10.0,3.122,268.0,,'11111222,11111222,99999999' 
WAVCIS,ioos:station:WAVCIS:CSI03:3,2010-08-06T16:00:00Z,29.4412,-92.0613,10.0,0.49,269.0,,'11111222,11111222,99999999' 
WAVCIS,ioos:station:WAVCIS:CSI03:3,2010-08-06T17:00:00Z,29.4412,-92.0613,10.0,1.116,270.0,,'11111222,11111222,99999999' 
WAVCIS,ioos:station:WAVCIS:CSI03:3,2010-08-06T18:00:00Z,29.4412,-92.0613,10.0,2.161,282.0,,'11111222,11111222,99999999' 
WAVCIS,ioos:station:WAVCIS:CSI03:3,2010-08-06T19:00:00Z,29.4412,-92.0613,10.0,1.206,269.0,,'11111222,11111222,99999999' 
WAVCIS,ioos:station:WAVCIS:CSI03:3,2010-08-06T20:00:00Z,29.4412,-92.0613,10.0,3.637,263.0,,'11111222,11111222,99999999' 
WAVCIS,ioos:station:WAVCIS:CSI03:3,2010-08-06T21:00:00Z,29.4412,-92.0613,10.0,3.525,253.0,,'11111222,11111222,99999999' 
WAVCIS,ioos:station:WAVCIS:CSI03:3,2010-08-06T22:00:00Z,29.4412,-92.0613,10.0,4.751,270.0,,'11111222,11111222,99999999' 
WAVCIS,ioos:station:WAVCIS:CSI03:3,2010-08-06T23:00:00Z,29.4412,-92.0613,10.0,3.801,264.0,,'11111222,11111222,99999999' 
WAVCIS,ioos:station:WAVCIS:CSI03:3,2010-08-07T00:00:00Z,29.4412,-92.0613,10.0,3.677,263.0,,'11111222,11111222,99999999' 
WAVCIS,ioos:station:WAVCIS:CSI03:3,2010-08-07T01:00:00Z,29.4412,-92.0613,10.0,4.649,269.0,,'11111222,11111222,99999999' 
WAVCIS,ioos:station:WAVCIS:CSI03:3,2010-08-07T02:00:00Z,29.4412,-92.0613,10.0,4.047,260.0,,'11111222,11111222,99999999' 
WAVCIS,ioos:station:WAVCIS:CSI03:3,2010-08-07T03:00:00Z,29.4412,-92.0613,10.0,3.834,261.0,,'11111222,11111222,99999999' 
WAVCIS,ioos:station:WAVCIS:CSI03:3,2010-08-07T04:00:00Z,29.4412,-92.0613,10.0,3.656,268.0,,'11111222,11111222,99999999' 
WAVCIS,ioos:station:WAVCIS:CSI03:3,2010-08-07T05:00:00Z,29.4412,-92.0613,10.0,3.479,254.0,,'11111222,11111222,99999999' 
WAVCIS,ioos:station:WAVCIS:CSI03:3,2010-08-07T06:00:00Z,29.4412,-92.0613,10.0,3.49,245.0,,'11111222,11111222,99999999' 
WAVCIS,ioos:station:WAVCIS:CSI03:3,2010-08-07T07:00:00Z,29.4412,-92.0613,10.0,4.028,261.0,,'11111222,11111222,99999999' 
WAVCIS,ioos:station:WAVCIS:CSI03:3,2010-08-07T08:00:00Z,29.4412,-92.0613,10.0,3.991,256.0,,'11111222,11111222,99999999' 
WAVCIS,ioos:station:WAVCIS:CSI03:3,2010-08-07T09:00:00Z,29.4412,-92.0613,10.0,4.045,248.0,,'11111222,11111222,99999999' 
WAVCIS,ioos:station:WAVCIS:CSI03:3,2010-08-07T10:00:00Z,29.4412,-92.0613,10.0,4.261,255.0,,'11111222,11111222,99999999' 
WAVCIS,ioos:station:WAVCIS:CSI03:3,2010-08-07T11:00:00Z,29.4412,-92.0613,10.0,4.744,267.0,,'11111222,11111222,99999999' 
WAVCIS,ioos:station:WAVCIS:CSI03:3,2010-08-07T12:00:00Z,29.4412,-92.0613,10.0,4.304,269.0,,'11111222,11111222,99999999' 
WAVCIS,ioos:station:WAVCIS:CSI03:3,2010-08-07T13:00:00Z,29.4412,-92.0613,10.0,4.108,269.0,,'11111222,11111222,99999999' 
WAVCIS,ioos:station:WAVCIS:CSI03:3,2010-08-07T14:00:00Z,29.4412,-92.0613,10.0,4.108,270.0,,'11111222,11111222,99999999' 
WAVCIS,ioos:station:WAVCIS:CSI03:3,2010-08-07T15:00:00Z,29.4412,-92.0613,10.0,1.71,271.0,,'11111222,11111222,99999999' 
WAVCIS,ioos:station:WAVCIS:CSI03:3,2010-08-07T16:00:00Z,29.4412,-92.0613,10.0,0.4,270.0,,'11111222,11111222,99999999' 
WAVCIS,ioos:station:WAVCIS:CSI03:3,2010-08-07T17:00:00Z,29.4412,-92.0613,10.0,2.092,268.0,,'11111222,11111222,99999999' 
WAVCIS,ioos:station:WAVCIS:CSI03:3,2010-08-07T18:00:00Z,29.4412,-92.0613,10.0,3.295,251.0,,'11111222,11111222,99999999' 
WAVCIS,ioos:station:WAVCIS:CSI03:3,2010-08-07T19:00:00Z,29.4412,-92.0613,10.0,3.195,248.0,,'11111222,11111222,99999999' 
WAVCIS,ioos:station:WAVCIS:CSI03:3,2010-08-07T20:00:00Z,29.4412,-92.0613,10.0,2.64,247.0,,'11111222,11111222,99999999' 
WAVCIS,ioos:station:WAVCIS:CSI03:3,2010-08-07T21:00:00Z,29.4412,-92.0613,10.0,2.933,242.0,,'11111222,11111222,99999999' 
WAVCIS,ioos:station:WAVCIS:CSI03:3,2010-08-07T22:00:00Z,29.4412,-92.0613,10.0,4.123,241.0,,'11111222,11111222,99999999' 
WAVCIS,ioos:station:WAVCIS:CSI03:3,2010-08-07T23:00:00Z,29.4412,-92.0613,10.0,3.748,245.0,,'11111222,11111222,99999999' 
WAVCIS,ioos:station:WAVCIS:CSI03:3,2010-08-08T00:00:00Z,29.4412,-92.0613,10.0,4.767,242.0,,'11111222,11111222,99999999' 
WAVCIS,ioos:station:WAVCIS:CSI03:3,2010-08-08T01:00:00Z,29.4412,-92.0613,10.0,2.77,238.0,,'11111222,11111222,99999999' 
WAVCIS,ioos:station:WAVCIS:CSI03:3,2010-08-08T02:00:00Z,29.4412,-92.0613,10.0,3.696,240.0,,'11111222,11111222,99999999' 
WAVCIS,ioos:station:WAVCIS:CSI03:3,2010-08-08T03:00:00Z,29.4412,-92.0613,10.0,1.876,231.0,,'11111222,11111222,99999999' 
WAVCIS,ioos:station:WAVCIS:CSI03:3,2010-08-08T04:00:00Z,29.4412,-92.0613,10.0,3.354,236.0,,'11111222,11111222,99999999' 
WAVCIS,ioos:station:WAVCIS:CSI03:3,2010-08-08T05:00:00Z,29.4412,-92.0613,10.0,1.748,224.0,,'11111222,11111222,99999999' 
WAVCIS,ioos:station:WAVCIS:CSI03:3,2010-08-08T06:00:00Z,29.4412,-92.0613,10.0,2.652,234.0,,'11111222,11111222,99999999' 
WAVCIS,ioos:station:WAVCIS:CSI03:3,2010-08-08T07:00:00Z,29.4412,-92.0613,10.0,2.872,236.0,,'11111222,11111222,99999999' 
WAVCIS,ioos:station:WAVCIS:CSI03:3,2010-08-08T08:00:00Z,29.4412,-92.0613,10.0,4.309,241.0,,'11111222,11111222,99999999' 
WAVCIS,ioos:station:WAVCIS:CSI03:3,2010-08-08T09:00:00Z,29.4412,-92.0613,10.0,4.241,259.0,,'11111222,11111222,99999999' 
WAVCIS,ioos:station:WAVCIS:CSI03:3,2010-08-08T10:00:00Z,29.4412,-92.0613,10.0,3.776,251.0,,'11111222,11111222,99999999' 
WAVCIS,ioos:station:WAVCIS:CSI03:3,2010-08-08T11:00:00Z,29.4412,-92.0613,10.0,3.318,268.0,,'11111222,11111222,99999999' 
WAVCIS,ioos:station:WAVCIS:CSI03:3,2010-08-08T12:00:00Z,29.4412,-92.0613,10.0,3.267,269.0,,'11111222,11111222,99999999' 
WAVCIS,ioos:station:WAVCIS:CSI03:3,2010-08-08T13:00:00Z,29.4412,-92.0613,10.0,3.229,269.0,,'11111222,11111222,99999999' 
WAVCIS,ioos:station:WAVCIS:CSI03:3,2010-08-08T14:00:00Z,29.4412,-92.0613,10.0,2.898,266.0,,'11111222,11111222,99999999' 
WAVCIS,ioos:station:WAVCIS:CSI03:3,2010-08-08T15:00:00Z,29.4412,-92.0613,10.0,2.669,265.0,,'11111222,11111222,99999999' 
WAVCIS,ioos:station:WAVCIS:CSI03:3,2010-08-08T16:00:00Z,29.4412,-92.0613,10.0,1.91,257.0,,'11111222,11111222,99999999' 
WAVCIS,ioos:station:WAVCIS:CSI03:3,2010-08-08T17:00:00Z,29.4412,-92.0613,10.0,0.572,191.0,,'11111222,11111222,99999999' 
WAVCIS,ioos:station:WAVCIS:CSI03:3,2010-08-08T18:00:00Z,29.4412,-92.0613,10.0,0.781,255.0,,'11111222,11111222,99999999' 
WAVCIS,ioos:station:WAVCIS:CSI03:3,2010-08-08T19:00:00Z,29.4412,-92.0613,10.0,0.878,228.0,,'11111222,11111222,99999999' 
WAVCIS,ioos:station:WAVCIS:CSI03:3,2010-08-08T20:00:00Z,29.4412,-92.0613,10.0,2.423,244.0,,'11111222,11111222,99999999' 
WAVCIS,ioos:station:WAVCIS:CSI03:3,2010-08-08T21:00:00Z,29.4412,-92.0613,10.0,0.717,253.0,,'11111222,11111222,99999999' 
WAVCIS,ioos:station:WAVCIS:CSI03:3,2010-08-08T22:00:00Z,29.4412,-92.0613,10.0,1.198,242.0,,'11111222,11111222,99999999' 
WAVCIS,ioos:station:WAVCIS:CSI03:3,2010-08-08T23:00:00Z,29.4412,-92.0613,10.0,2.807,242.0,,'11111222,11111222,99999999' 
WAVCIS,ioos:station:WAVCIS:CSI03:3,2010-08-09T00:00:00Z,29.4412,-92.0613,10.0,2.74,239.0,,'11111222,11111222,99999999' 
WAVCIS,ioos:station:WAVCIS:CSI03:3,2010-08-09T01:00:00Z,29.4412,-92.0613,10.0,1.092,233.0,,'11111222,11111222,99999999' 
WAVCIS,ioos:station:WAVCIS:CSI03:3,2010-08-09T02:00:00Z,29.4412,-92.0613,10.0,3.835,258.0,,'11111222,11111222,99999999' 
WAVCIS,ioos:station:WAVCIS:CSI03:3,2010-08-09T03:00:00Z,29.4412,-92.0613,10.0,3.257,248.0,,'11111222,11111222,99999999' 
WAVCIS,ioos:station:WAVCIS:CSI03:3,2010-08-09T04:00:00Z,29.4412,-92.0613,10.0,2.855,247.0,,'11111222,11111222,99999999' 